Weather History for Madison, MN

Change the Weather History Date:

Saturday, February 9, 2013

  Actual Average (KAQP) Record (KAQP)
Temperature  
Mean Temperature 28 °F -  
Max Temperature 33 °F 23 °F 44 °F (2012)
Min Temperature 24 °F 7 °F -14 °F (2011)
Degree Days  
Heating Degree Days 36    
Moisture  
Dew Point 27 °F    
Average Humidity 87    
Maximum Humidity 93    
Minimum Humidity 80    
Precipitation  
Precipitation 0.05 in - - ()
Sea Level Pressure  
Sea Level Pressure 29.90 in    
Wind  
Wind Speed 15 mph (SE)    
Max Wind Speed 23 mph    
Max Gust Speed 28 mph    
Visibility 5 miles    
Events Snow    
Averages and records for this station are not official NWS values.
T = Trace of Precipitation, MM = Missing Value Source: NWS Daily Summary

Daily Weather History Graph

Daily Weather History Graph

Search for Another Location

Airport:

Trip Planner

Search our weather history database for the weather conditions in past years. The results will help you decide how hot, cold, wet, or windy it might be!

Date:

Astronomy

Feb. 09, 2013 Rise Set
Actual Time 7:33 AM CST 5:44 PM CST
Civil Twilight 7:03 AM CST 6:15 PM CST
Nautical Twilight 6:28 AM CST 6:49 PM CST
Astronomical Twilight 5:54 AM CST 7:24 PM CST
Moon 6:45 AM CST (2/9) 5:30 PM CST (2/9)
Length of Visible Light 11h 11m
Length of Day
10h 10m
Waning Crescent, 0% of the Moon is Illuminated
Feb 9
Waning Crescent
Feb 10
New
Feb 17
First Quarter
Feb 25
Full
Mar 4
Last Quarter

Hourly Weather History & Observations

Time (CST) Temp. Windchill Dew Point Humidity Pressure Visibility Wind Dir Wind Speed Gust Speed Precip Events Conditions
12:14 AM 24.8 °F 10.3 °F 19.4 °F 80% 30.02 in 10.0 mi SSE 20.7 mph - N/A   Clear
12:34 AM 24.8 °F 10.7 °F 21.2 °F 86% 30.02 in 10.0 mi SSE 19.6 mph - N/A   Scattered Clouds
12:53 AM 24.8 °F 9.6 °F 21.2 °F 86% 30.01 in 10.0 mi SSE 23.0 mph - N/A   Scattered Clouds
1:11 AM 24.8 °F 10.0 °F 21.2 °F 86% 30.00 in 10.0 mi SSE 21.9 mph 27.6 mph N/A   Scattered Clouds
1:33 AM 26.6 °F 13.8 °F 21.2 °F 80% 30.00 in 10.0 mi SSE 17.3 mph - N/A   Mostly Cloudy
1:54 AM 26.6 °F 15.2 °F 23.0 °F 86% 29.99 in 10.0 mi SE 13.8 mph - N/A   Overcast
2:14 AM 26.6 °F 14.7 °F 24.8 °F 93% 29.99 in 7.0 mi SSE 15.0 mph - N/A   Overcast
2:34 AM 28.4 °F 17.5 °F 24.8 °F 86% 29.98 in 10.0 mi SSE 13.8 mph - N/A   Overcast
2:54 AM 28.4 °F 16.2 °F 24.8 °F 86% 29.97 in 10.0 mi SSE 17.3 mph - N/A   Overcast
3:13 AM 28.4 °F 17.0 °F 24.8 °F 86% 29.96 in 10.0 mi SSE 15.0 mph - N/A   Overcast
3:34 AM 28.4 °F 17.5 °F 24.8 °F 86% 29.96 in 10.0 mi SSE 13.8 mph - N/A   Mostly Cloudy
3:54 AM 28.4 °F 17.0 °F 24.8 °F 86% 29.96 in 10.0 mi South 15.0 mph - N/A   Mostly Cloudy
4:13 AM 28.4 °F 18.5 °F 24.8 °F 86% 29.96 in 10.0 mi SSE 11.5 mph - N/A   Scattered Clouds
4:34 AM 26.6 °F 16.8 °F 23.0 °F 86% 29.97 in 7.0 mi ESE 10.4 mph - N/A   Scattered Clouds
4:54 AM 26.6 °F 16.2 °F 24.8 °F 93% 29.97 in 7.0 mi SSE 11.5 mph - N/A   Mostly Cloudy
5:13 AM 28.4 °F 19.1 °F 24.8 °F 86% 29.97 in 7.0 mi SE 10.4 mph - N/A   Overcast
5:33 AM 28.4 °F 16.6 °F 24.8 °F 86% 29.95 in 7.0 mi South 16.1 mph - N/A   Mostly Cloudy
5:54 AM 28.4 °F 19.7 °F 24.8 °F 86% 29.96 in 7.0 mi ESE 9.2 mph - N/A   Scattered Clouds
6:13 AM 28.4 °F 17.0 °F 24.8 °F 86% 29.95 in 5.0 mi South 15.0 mph - N/A   Mostly Cloudy
6:33 AM 30.2 °F 19.3 °F 24.8 °F 80% 29.95 in 7.0 mi SSE 15.0 mph - N/A   Scattered Clouds
6:54 AM 30.2 °F 18.5 °F 26.6 °F 86% 29.95 in 7.0 mi South 17.3 mph - N/A   Mostly Cloudy
7:13 AM 28.4 °F 17.0 °F 24.8 °F 86% 29.96 in 7.0 mi South 15.0 mph - N/A   Scattered Clouds
7:34 AM 30.2 °F 18.9 °F 26.6 °F 86% 29.95 in 5.0 mi South 16.1 mph - N/A   Mostly Cloudy
7:54 AM 30.2 °F 18.9 °F 26.6 °F 86% 29.95 in 5.0 mi South 16.1 mph - N/A   Mostly Cloudy
8:13 AM 30.2 °F 19.8 °F 26.6 °F 86% 29.96 in 5.0 mi South 13.8 mph - N/A   Overcast
8:34 AM 30.2 °F 19.8 °F 26.6 °F 86% 29.96 in 5.0 mi South 13.8 mph - N/A   Overcast
8:54 AM 30.2 °F 18.9 °F 26.6 °F 86% 29.95 in 5.0 mi South 16.1 mph - N/A   Haze
9:13 AM 30.2 °F 20.2 °F 26.6 °F 86% 29.95 in 5.0 mi South 12.7 mph - N/A   Haze
9:34 AM 30.2 °F 21.3 °F 26.6 °F 86% 29.95 in 5.0 mi South 10.4 mph - N/A   Haze
9:54 AM 30.2 °F 20.2 °F 26.6 °F 86% 29.95 in 4.0 mi South 12.7 mph - N/A   Scattered Clouds
10:13 AM 30.2 °F 20.2 °F 26.6 °F 86% 29.95 in 4.0 mi South 12.7 mph - N/A   Clear
10:34 AM 30.2 °F 20.8 °F 26.6 °F 86% 29.95 in 4.0 mi South 11.5 mph - N/A   Clear
10:54 AM 30.2 °F 20.2 °F 28.4 °F 93% 29.95 in 4.0 mi South 12.7 mph - N/A   Clear
11:13 AM 32.0 °F 23.0 °F 28.4 °F 87% 29.94 in 4.0 mi SSE 11.5 mph - N/A   Clear
11:34 AM 32.0 °F 23.0 °F 28.4 °F 87% 29.94 in 4.0 mi SSE 11.5 mph - N/A   Clear
11:54 AM 32.0 °F 23.6 °F 28.4 °F 87% 29.93 in 4.0 mi SSE 10.4 mph - N/A   Clear
12:13 PM 32.0 °F 23.6 °F 28.4 °F 87% 29.92 in 3.0 mi SSE 10.4 mph - N/A   Clear
12:34 PM 33.8 °F 25.3 °F 28.4 °F 81% 29.91 in 3.0 mi SSE 11.5 mph - N/A   Mist
12:54 PM 33.8 °F 25.3 °F 28.4 °F 81% 29.90 in 3.0 mi SSE 11.5 mph - N/A   Mist
1:13 PM 33.8 °F 24.8 °F 28.4 °F 81% 29.89 in 3.0 mi SSE 12.7 mph - N/A   Mist
1:34 PM 33.8 °F 25.8 °F 28.4 °F 81% 29.89 in 3.0 mi SSE 10.4 mph - N/A   Mist
1:54 PM 33.8 °F 24.8 °F 30.2 °F 87% 29.88 in 3.0 mi SSE 12.7 mph - N/A   Mist
2:13 PM 33.8 °F 25.3 °F 30.2 °F 87% 29.87 in 3.0 mi SSE 11.5 mph - N/A   Mist
2:34 PM 33.8 °F 25.8 °F 30.2 °F 87% 29.86 in 3.0 mi SSE 10.4 mph - N/A   Mist
2:54 PM 33.8 °F 23.9 °F 30.2 °F 87% 29.86 in 2.5 mi SSE 15.0 mph - N/A   Mist
3:13 PM 33.8 °F 25.3 °F 30.2 °F 87% 29.85 in 2.5 mi SE 11.5 mph - N/A   Mist
3:34 PM 32.0 °F 22.5 °F 30.2 °F 93% 29.85 in 2.5 mi SE 12.7 mph - N/A   Mist
3:54 PM 32.0 °F 21.6 °F 28.4 °F 87% 29.85 in 2.5 mi SE 15.0 mph - N/A   Mist
4:13 PM 32.0 °F 22.5 °F 28.4 °F 87% 29.86 in 3.0 mi SE 12.7 mph - N/A   Mist
4:34 PM 32.0 °F 23.0 °F 28.4 °F 87% 29.85 in 3.0 mi SE 11.5 mph - N/A   Scattered Clouds
4:54 PM 32.0 °F 23.6 °F 28.4 °F 87% 29.84 in 4.0 mi ESE 10.4 mph - N/A   Scattered Clouds
5:13 PM 32.0 °F 23.6 °F 28.4 °F 87% 29.84 in 4.0 mi ESE 10.4 mph - N/A   Scattered Clouds
5:34 PM 32.0 °F 23.0 °F 28.4 °F 87% 29.84 in 3.0 mi ESE 11.5 mph - N/A   Clear
5:54 PM 32.0 °F 22.5 °F 28.4 °F 87% 29.83 in 5.0 mi ESE 12.7 mph - N/A   Clear
6:13 PM 32.0 °F 23.0 °F 28.4 °F 87% 29.84 in 5.0 mi ESE 11.5 mph - N/A   Clear
6:34 PM 32.0 °F 23.0 °F 28.4 °F 87% 29.83 in 5.0 mi ESE 11.5 mph - N/A   Clear
6:53 PM 32.0 °F 22.5 °F 28.4 °F 87% 29.84 in 5.0 mi ESE 12.7 mph - N/A   Clear
7:34 PM 32.0 °F 22.5 °F 28.4 °F 87% 29.83 in 5.0 mi ESE 12.7 mph - N/A   Clear
7:53 PM 32.0 °F 24.2 °F 28.4 °F 87% 29.85 in 5.0 mi ESE 9.2 mph - N/A   Scattered Clouds
8:14 PM 32.0 °F 24.8 °F 30.2 °F 93% 29.84 in 4.0 mi ESE 8.1 mph - N/A   Mostly Cloudy
8:33 PM 32.0 °F 23.0 °F 30.2 °F 93% 29.82 in 3.0 mi East 11.5 mph - N/A Snow Light Snow
8:54 PM 32.0 °F 23.0 °F 30.2 °F 93% 29.82 in 2.0 mi ESE 11.5 mph - N/A Snow Light Snow
9:14 PM 32.0 °F 22.5 °F 30.2 °F 93% 29.81 in 2.5 mi ESE 12.7 mph - N/A Snow Light Snow
9:33 PM 32.0 °F 22.5 °F 30.2 °F 93% 29.81 in 1.5 mi ESE 12.7 mph - 0.01 in Snow Light Snow
9:54 PM 32.0 °F 22.5 °F 30.2 °F 93% 29.80 in 1.8 mi ESE 12.7 mph - 0.02 in Snow Light Snow
10:13 PM 33.8 °F 23.9 °F 30.2 °F 87% 29.81 in 4.0 mi SE 15.0 mph - N/A Snow Light Snow
10:34 PM 33.8 °F 24.8 °F 30.2 °F 87% 29.79 in 3.0 mi SE 12.7 mph - N/A Snow Light Snow
10:54 PM 32.0 °F 22.1 °F 30.2 °F 93% 29.78 in 1.8 mi ESE 13.8 mph - N/A Snow Light Snow
11:13 PM 32.0 °F 21.2 °F 30.2 °F 93% 29.77 in 1.2 mi ESE 16.1 mph - 0.01 in Snow Light Snow
11:34 PM 32.0 °F 21.2 °F 30.2 °F 93% 29.77 in 1.8 mi SE 16.1 mph - 0.02 in Snow Light Snow
11:54 PM 32.0 °F 22.1 °F 30.2 °F 93% 29.76 in 2.0 mi ESE 13.8 mph - 0.03 in Snow Light Snow